Tracking 31027 objects as of 19-Jul-2025
HD Live streaming from Space Station
objects crossing your sky now

STARLINK-5053

Track STARLINK-5053 now!
10-day predictions
STARLINK-5053 is classified as:


NORAD ID: 53913
Int'l Code: 2022-119AD
Perigee: 546.1 km
Apogee: 547.6 km
Inclination: 53.2 °
Period: 95.4 minutes
Semi major axis: 6917 km
RCS: Unknown
Launch date: September 24, 2022
Source: United States (US)
Launch site: AIR FORCE EASTERN TEST RANGE (AFETR)
Your satellite tracking list
STARLINK-3315
Track 1 satellite(s)




NASA's NSSDC Master Catalog

Two Line Element Set (TLE):
1 53913U 22119AD  25199.52153309  .00000563  00000-0  53480-4 0  9998
2 53913  53.2179 285.3270 0001085  83.0795 277.0320 15.08835864156059
Source of the keplerian elements: AFSPC